[[{"header":{"parameterUnit":"m.s-1","parameterCategory":1,"la1":30.2991,"la2":30.254,"lo1":-89.0895,"lo2":-89.0444,"dy":0.0017,"dx":0.0017,"nx":28,"ny":28,"refTime":"2024-10-16T21:00:00:Z","depth":0,"parameterNumber":2,"parameterNumberName":"U-component_of_WINDS"},"data":[0,0,0,0,0,0,0,0,0,0,0,0,0,0,0,0,0,0,0,0,0,0,0,0,0,0,0,0,0,0,0,0,0,0,0,0,0,0,0,0,0,0,0,0,0,0,0,0,0,0,0,0,0,0,0,0,0,0,-5.7541,-5.7542,0,-5.76,-5.76,-5.7601,-5.7415,-5.7409,-5.7404,-5.7398,-5.7459,-5.7466,-5.7473,0,0,0,0,0,0,0,0,0,0,0,0,0,-5.7268,-5.7274,-5.7541,-5.7542,-5.7543,-5.7599,-5.76,-5.7601,-5.7416,-5.7409,-5.7402,-5.7396,-5.7457,-5.7465,-5.7473,0,0,0,0,0,0,0,0,0,0,0,0,0,-5.7363,-5.7276,-5.7541,-5.7457,-5.745,-5.7599,-5.76,-5.7601,-5.7418,-5.7409,-5.7401,-5.7393,-5.7454,-5.7464,-5.7474,-5.7707,0,0,-5.7506,-5.751,0,0,0,0,0,0,0,0,-5.7358,-5.7373,-5.7469,-5.7463,-5.7456,-5.7491,-5.7526,-5.7637,-5.742,-5.743,-5.7398,-5.7389,-5.7477,-5.7485,-5.7514,-5.771,-5.7713,-5.7507,-5.7513,-5.7517,-5.752,0,0,0,0,0,0,0,-5.7351,-5.7369,-5.7564,-5.747,-5.7462,-5.7416,-5.742,-5.7546,-5.75,-5.7428,-5.7415,-5.7425,-5.7471,-5.7505,-5.7514,-5.7714,-5.7506,-5.7516,-5.7522,-5.7526,-5.8101,-5.8109,0,0,0,0,0,0,-5.7356,-5.7365,-5.7562,-5.7566,-5.7385,-5.7428,-5.7432,-5.7488,-5.7498,-5.7492,-5.7432,-5.7416,-5.7491,-5.7502,-5.7516,-5.7786,-5.7517,-5.7527,-5.7533,-5.8092,-5.8103,-5.8113,0,0,0,0,0,0,-5.7351,-5.7375,-5.756,-5.7462,-5.7482,-5.7442,-5.7506,-5.7494,-5.7527,-5.7501,-5.7491,-5.7474,-5.7485,-5.7501,-5.766,-5.7786,-5.7532,-5.7541,-5.8081,-5.8095,-5.8108,-5.8331,0,0,0,0,0,0,-5.7343,-5.7374,-5.7463,-5.7465,-5.7488,-5.7704,-5.7514,-5.7501,-5.7545,-5.7525,-5.7538,-5.7532,-5.748,-5.7646,-5.7671,-5.7795,-5.7549,-5.8069,-5.8087,-5.8103,-5.8313,-5.8351,-5.8384,0,0,0,0,0,-5.7334,-5.7524,-5.7468,-5.7493,-5.7598,-5.7712,-5.7725,-5.766,-5.7556,-5.7644,-5.7627,-5.7532,-5.7769,-5.7664,-5.769,-5.782,-5.8061,-5.8082,-5.8102,-5.8297,-5.8344,-5.8383,0,0,0,0,0,0,-5.7538,-5.7523,-5.7461,-5.7657,-5.7687,-5.768,-5.7789,-5.7713,-5.7773,-5.7751,-5.7669,-5.7674,-5.7847,-5.785,-5.7733,-5.8044,-5.7897,-5.7924,-5.8036,-5.808,-5.8115,-5.811,-5.7558,0,0,0,0,0,-5.7606,-5.77,-5.7682,-5.7857,-5.7875,-5.7831,-5.7878,-5.7826,-5.7853,-5.7865,-5.786,-5.7891,-5.7971,-5.8026,-5.81,-5.8313,-5.8312,-5.8415,-5.8451,-5.848,-5.8503,-5.8613,-5.8658,-5.818,-5.818,-5.8179,0,0,-5.7746,-5.775,-5.7814,-5.7898,-5.7915,-5.8013,-5.7842,-5.7955,-5.8026,-5.7882,-5.8031,-5.8029,-5.8058,-5.8244,-5.8326,-5.8251,-5.8636,-5.8506,-5.853,-5.8537,-5.8639,-5.8684,-5.8725,-5.8194,-5.8191,-5.8189,0,0,-5.8052,-5.8066,-5.8211,-5.8232,-5.826,-5.8228,-5.8264,-5.8269,-5.8261,-5.841,-5.8303,-5.8388,-5.853,-5.8554,-5.8585,-5.89,-5.8813,-5.8926,-5.9111,-5.922,-5.9257,-5.929,-5.9399,-5.944,-5.895,-5.8951,-5.8951,0,-5.8223,-5.8367,-5.8296,-5.8415,-5.8453,-5.8328,-5.8474,-5.8497,-5.8549,-5.8578,-5.8494,-5.8668,-5.8679,-5.8868,-5.8944,-5.8975,-5.9011,-5.8923,-5.9258,-5.929,-5.932,-5.9423,-5.9464,-5.8964,-5.8962,-5.8961,-5.896,0,-5.8574,-5.8677,-5.8791,-5.8842,-5.8894,-5.9027,-5.8974,-5.9036,-5.898,-5.8957,-5.9109,-5.9118,-5.9189,-5.9231,-5.9178,-5.9413,-5.9365,-5.9272,-5.9121,-5.938,-5.9475,-5.9514,-5.8983,-5.8978,-5.8974,-5.8971,0,0,-5.9008,-5.9018,-5.9061,-5.9081,-5.9103,-5.918,-5.9307,-5.9376,-5.9429,-5.9469,-5.9571,-5.9694,-5.9607,-5.9642,-5.9591,-5.9687,-5.9932,-5.958,-5.9579,-5.9642,-6.0187,-6.0255,-6.0302,-5.9876,-5.9883,-5.9889,-6.0183,0,-5.9306,-5.9521,-5.946,-5.9675,-5.9767,-5.9649,-5.9759,-5.9784,-5.9767,-5.9842,-5.9823,-5.991,-5.979,-5.981,-5.99,-5.9883,-6.0039,-5.9861,-5.9968,-5.9973,-5.9961,-6.0352,-6.0424,-6.0702,-6.0221,-6.0227,-6.0232,0,-5.9682,-5.9735,-5.9959,-5.9963,-6.0,-6.0099,-6.0157,-6.0231,-6.0257,-6.0237,-6.0277,-6.0206,-6.0329,-6.0181,-6.0348,-6.0228,-6.0269,-6.0267,-6.0277,-6.0281,-6.0115,-6.0364,-6.0789,-6.083,-6.029,-6.0286,-6.0281,0,-5.9971,-6.0099,-6.0249,-6.0271,-6.0281,-6.0353,-6.0361,-6.0378,-6.0423,-6.0474,-6.0502,-6.0568,-6.0603,-6.0656,-6.0603,-6.0501,-6.0778,-6.0626,-6.0764,-6.0765,-6.0824,-6.0821,-6.1258,-6.0858,-6.0857,-6.0856,-6.0855,0,-6.0307,-6.0448,-6.0378,-6.047,-6.0624,-6.0554,-6.0708,-6.0702,-6.0719,-6.0806,-6.071,-6.0795,-6.0723,-6.0801,-6.0762,-6.0904,-6.0922,-6.0909,-6.0896,-6.0915,-6.0916,-6.0938,-6.0916,-6.0867,-6.0865,-6.0863,-6.0861,0,-6.0655,-6.0614,-6.0769,-6.0766,-6.0768,-6.0882,-6.0878,-6.0963,-6.0939,-6.1051,-6.1074,-6.1037,-6.1124,-6.1078,-6.1169,-6.1142,-6.1326,-6.1289,-6.1317,-6.1305,-6.1444,-6.143,-6.1908,-6.1965,-6.1532,-6.1536,-6.1539,0,-6.087,-6.0975,-6.0984,-6.1035,-6.1049,-6.1135,-6.1179,-6.1115,-6.1166,-6.1203,-6.1282,-6.1361,-6.142,-6.1564,-6.1545,-6.1613,-6.1575,-6.1738,-6.1584,-6.16,-6.1573,-6.1565,-6.1574,-6.1767,-6.1772,-6.1776,-6.178,0,-6.1256,-6.123,-6.1299,-6.1362,-6.1418,-6.1464,-6.1502,-6.155,-6.1485,-6.1548,-6.1635,-6.1681,-6.1772,-6.1851,-6.191,-6.1917,-6.1838,-6.1829,-6.1863,-6.1882,-6.1892,-6.1885,-6.1396,-6.1817,-6.1813,-6.1811,-6.1809,-6.1807,-6.1541,-6.1628,-6.1647,-6.1726,-6.1748,-6.1785,-6.1863,-6.1849,-6.1921,-6.1989,-6.1948,-6.205,-6.2072,-6.2142,-6.216,-6.2238,-6.2173,-6.2224,-6.2236,-6.2249,-6.2266,-6.1884,-6.2249,-6.2248,-6.2247,-6.2246,-6.2245,0,-6.1918,-6.1924,-6.1998,-6.2053,-6.2116,-6.2037,-6.2075,-6.2132,-6.2223,-6.225,-6.231,-6.2409,-6.2485,-6.2472,-6.2541,-6.2606,-6.2571,-6.2626,-6.2618,-6.262,-6.2322,-6.2284,-6.2652,-6.2652,-6.2652,-6.2652,-6.2652,-6.2652,-6.2121,-6.2263,-6.224,-6.2391,-6.2396,-6.2495,-6.2523,-6.2556,-6.2577,-6.2693,-6.2755,-6.2746,-6.2757,-6.2825,-6.2891,-6.2885,-6.2913,-6.2981,-6.2961,-6.2682,-6.2642,-6.2603,-6.2566,-6.2988,-6.2989,-6.3252,-6.3254,-6.3256]},{"header":{"parameterUnit":"m.s-1","parameterCategory":1,"la1":30.2991,"la2":30.254,"lo1":-89.0895,"lo2":-89.0444,"dy":0.0017,"dx":0.0017,"nx":28,"ny":28,"refTime":"2024-10-16T21:00:00:Z","depth":0,"parameterNumber":3,"parameterNumberName":"V-component_of_WINDS"},"data":[0,0,0,0,0,0,0,0,0,0,0,0,0,0,0,0,0,0,0,0,0,0,0,0,0,0,0,0,0,0,0,0,0,0,0,0,0,0,0,0,0,0,0,0,0,0,0,0,0,0,0,0,0,0,0,0,0,0,-1.7826,-1.7826,0,-1.7844,-1.7844,-1.7844,-1.7871,-1.7871,-1.7872,-1.7872,-1.7888,-1.7888,-1.7888,0,0,0,0,0,0,0,0,0,0,0,0,0,-1.7811,-1.7811,-1.7826,-1.7826,-1.7826,-1.7843,-1.7844,-1.7844,-1.7871,-1.7871,-1.7872,-1.7872,-1.7888,-1.7888,-1.7888,0,0,0,0,0,0,0,0,0,0,0,0,0,-1.7822,-1.7811,-1.7826,-1.7842,-1.7843,-1.7843,-1.7844,-1.7844,-1.787,-1.7871,-1.7872,-1.7873,-1.7888,-1.7888,-1.7888,-1.7874,0,0,-1.7888,-1.7888,0,0,0,0,0,0,0,0,-1.7821,-1.7823,-1.7839,-1.784,-1.7842,-1.7856,-1.7845,-1.7854,-1.787,-1.786,-1.7872,-1.7873,-1.7877,-1.7878,-1.7879,-1.7875,-1.7875,-1.7888,-1.7888,-1.7888,-1.7888,0,0,0,0,0,0,0,-1.7821,-1.7822,-1.7833,-1.7839,-1.7841,-1.7847,-1.7849,-1.7847,-1.7864,-1.7861,-1.7863,-1.7865,-1.7878,-1.7879,-1.788,-1.7876,-1.7888,-1.7888,-1.7888,-1.7888,-1.7857,-1.7856,0,0,0,0,0,0,-1.7818,-1.7821,-1.7832,-1.7833,-1.7833,-1.7846,-1.7849,-1.7851,-1.7864,-1.7867,-1.7864,-1.7866,-1.7879,-1.788,-1.7881,-1.7863,-1.7888,-1.7888,-1.7888,-1.7858,-1.7857,-1.7856,0,0,0,0,0,0,-1.7817,-1.7819,-1.7831,-1.7828,-1.783,-1.7846,-1.7847,-1.7851,-1.7852,-1.7867,-1.787,-1.7863,-1.788,-1.7881,-1.7875,-1.7864,-1.7888,-1.7888,-1.7859,-1.7857,-1.7856,-1.7828,0,0,0,0,0,0,-1.7817,-1.7818,-1.7814,-1.7827,-1.783,-1.7826,-1.7847,-1.785,-1.7852,-1.7855,-1.7866,-1.7869,-1.788,-1.7875,-1.7875,-1.7864,-1.7888,-1.786,-1.7858,-1.7857,-1.783,-1.7826,-1.7823,0,0,0,0,0,-1.7816,-1.7805,-1.7814,-1.7815,-1.7825,-1.7826,-1.7827,-1.7841,-1.7851,-1.7846,-1.7855,-1.7868,-1.7865,-1.7874,-1.7874,-1.7864,-1.7861,-1.7859,-1.7857,-1.7832,-1.7827,-1.7823,0,0,0,0,0,0,-1.779,-1.7808,-1.7817,-1.781,-1.7816,-1.783,-1.7824,-1.7836,-1.7839,-1.7841,-1.7858,-1.786,-1.7851,-1.7857,-1.7867,-1.7849,-1.7865,-1.7863,-1.7845,-1.7841,-1.7837,-1.7836,-1.7888,0,0,0,0,0,-1.7784,-1.7784,-1.7799,-1.7791,-1.7794,-1.7808,-1.7809,-1.782,-1.7826,-1.7829,-1.7837,-1.7843,-1.7843,-1.7842,-1.7843,-1.7831,-1.7833,-1.7824,-1.782,-1.7817,-1.7815,-1.7806,-1.7802,-1.785,-1.785,-1.785,0,0,-1.777,-1.778,-1.7779,-1.7786,-1.7792,-1.779,-1.781,-1.7808,-1.7807,-1.7828,-1.7823,-1.7829,-1.7836,-1.7826,-1.7823,-1.7831,-1.7802,-1.7814,-1.7812,-1.7811,-1.7804,-1.7799,-1.7795,-1.7849,-1.7849,-1.7849,0,0,-1.7744,-1.7752,-1.7746,-1.7751,-1.776,-1.7769,-1.7767,-1.7779,-1.7784,-1.7779,-1.7795,-1.7793,-1.7793,-1.7796,-1.7798,-1.7771,-1.7783,-1.7771,-1.7751,-1.7743,-1.7739,-1.7736,-1.7724,-1.772,-1.7769,-1.7769,-1.7769,0,-1.7726,-1.7725,-1.7741,-1.7737,-1.7739,-1.7759,-1.7751,-1.7755,-1.7763,-1.7764,-1.7773,-1.7772,-1.7778,-1.7769,-1.7762,-1.7763,-1.776,-1.777,-1.7739,-1.7735,-1.7733,-1.7722,-1.7718,-1.7768,-1.7768,-1.7768,-1.7768,0,-1.7701,-1.77,-1.7694,-1.7701,-1.7702,-1.7697,-1.771,-1.7709,-1.7719,-1.7727,-1.772,-1.7728,-1.773,-1.7729,-1.7738,-1.772,-1.7724,-1.7736,-1.7752,-1.7726,-1.7716,-1.7712,-1.7765,-1.7766,-1.7766,-1.7767,0,0,-1.7661,-1.7675,-1.7672,-1.7675,-1.7685,-1.7684,-1.7678,-1.768,-1.7678,-1.7682,-1.7677,-1.7676,-1.7686,-1.7688,-1.7698,-1.7691,-1.7666,-1.7703,-1.7703,-1.7694,-1.7643,-1.7633,-1.7629,-1.7674,-1.7673,-1.7673,-1.7642,0,-1.7636,-1.7627,-1.7641,-1.7629,-1.7626,-1.7644,-1.7639,-1.7643,-1.765,-1.7648,-1.7656,-1.7654,-1.7669,-1.7669,-1.7663,-1.767,-1.7656,-1.7673,-1.7667,-1.7667,-1.7664,-1.7624,-1.7614,-1.7585,-1.7639,-1.7638,-1.7638,0,-1.7606,-1.7608,-1.7596,-1.7604,-1.7604,-1.7599,-1.7601,-1.7599,-1.7604,-1.7609,-1.7611,-1.7622,-1.7616,-1.7632,-1.7622,-1.7633,-1.7631,-1.7634,-1.7633,-1.7632,-1.765,-1.762,-1.7576,-1.7571,-1.7632,-1.7632,-1.7633,0,-1.7574,-1.7575,-1.7567,-1.7569,-1.7579,-1.7575,-1.7579,-1.7584,-1.7584,-1.7585,-1.7584,-1.7585,-1.7585,-1.7584,-1.7594,-1.7606,-1.7582,-1.76,-1.7585,-1.7584,-1.7579,-1.7579,-1.7532,-1.758,-1.758,-1.758,-1.758,0,-1.7545,-1.7536,-1.7553,-1.7548,-1.7538,-1.7553,-1.7542,-1.7548,-1.7552,-1.7547,-1.7563,-1.7558,-1.7573,-1.7569,-1.7577,-1.7566,-1.7567,-1.7569,-1.7571,-1.7567,-1.7566,-1.7566,-1.7567,-1.7579,-1.7579,-1.7579,-1.758,0,-1.7508,-1.7519,-1.7512,-1.7521,-1.7524,-1.7516,-1.7523,-1.7518,-1.7526,-1.7519,-1.7519,-1.753,-1.7526,-1.7537,-1.7535,-1.754,-1.7524,-1.753,-1.7522,-1.7523,-1.7507,-1.7508,-1.7457,-1.745,-1.7504,-1.7503,-1.7503,0,-1.7488,-1.7481,-1.749,-1.7488,-1.7491,-1.7488,-1.7487,-1.75,-1.7499,-1.7502,-1.7496,-1.7494,-1.7492,-1.7485,-1.7492,-1.749,-1.7495,-1.7477,-1.7495,-1.749,-1.7492,-1.7492,-1.749,-1.7473,-1.7473,-1.7472,-1.7472,0,-1.7449,-1.7455,-1.7454,-1.7453,-1.7452,-1.7453,-1.7454,-1.7451,-1.7465,-1.7463,-1.7459,-1.7457,-1.7454,-1.7451,-1.745,-1.7453,-1.7464,-1.7466,-1.7462,-1.7457,-1.7452,-1.7453,-1.7511,-1.7467,-1.7468,-1.7468,-1.7468,-1.7468,-1.7419,-1.7413,-1.7418,-1.7415,-1.7418,-1.7418,-1.7413,-1.742,-1.7417,-1.7415,-1.7423,-1.7417,-1.742,-1.742,-1.7421,-1.7416,-1.7423,-1.7418,-1.7417,-1.7415,-1.7411,-1.7454,-1.7416,-1.7416,-1.7416,-1.7416,-1.7416,0,-1.738,-1.7384,-1.7381,-1.7382,-1.7379,-1.7391,-1.7392,-1.7389,-1.7383,-1.7385,-1.7383,-1.7377,-1.7373,-1.738,-1.7376,-1.737,-1.7375,-1.7369,-1.7369,-1.7369,-1.7406,-1.7408,-1.7365,-1.7365,-1.7365,-1.7365,-1.7365,-1.7365,-1.736,-1.735,-1.7355,-1.7346,-1.7349,-1.7343,-1.7343,-1.7342,-1.7344,-1.7337,-1.7333,-1.7338,-1.7341,-1.7337,-1.7334,-1.7336,-1.7333,-1.7324,-1.7328,-1.7362,-1.7367,-1.7371,-1.7374,-1.7324,-1.7324,-1.7291,-1.7291,-1.7291]}]]